Printer-friendly version

IAU Minor Planet Center

Minor Planet Center

MPEC 2004-Q56 : 2004 QN22

The following Minor Planet Electronic Circular may be linked-to from your own Web pages, but must not otherwise be redistributed electronically.


Read MPEC 2004-Q55 Read MPEC 2004-Q57


M.P.E.C. 2004-Q56                                Issued 2004 Aug. 28, 05:26 UT

     The Minor Planet Electronic Circulars contain information on unusual
         minor planets and routine data on comets.  They are published
   on behalf of Commission 20 of the International Astronomical Union by the
          Minor Planet Center, Smithsonian Astrophysical Observatory,
                          Cambridge, MA 02138, U.S.A.

                  Supported in part by the Brinson Foundation
             Prepared using the Tamkin Foundation Computer Network

                              MPC@CFA.HARVARD.EDU
          URL http://cfa-www.harvard.edu/iau/mpc.html  ISSN 1523-6714

                                   2004 QN22

Observations:
     K04Q22N* C2004 08 25.28684 23 14 11.96 +36 35 31.3          19.2   EQ056704
     K04Q22N  C2004 08 25.30672 23 14 57.96 +36 36 18.8          19.0   EQ056704
     K04Q22N  C2004 08 25.31666 23 15 21.01 +36 36 40.2          19.7   EQ056704
     K04Q22N  C2004 08 25.32660 23 15 43.98 +36 37 02.0          19.3   EQ056704
     K04Q22N  C2004 08 27.92059 01 05 32.99 +34 54 09.8          18.5 R EQ056J95
     K04Q22N  C2004 08 27.92361 01 05 40.23 +34 53 51.8          18.6 R EQ056J95
     K04Q22N  C2004 08 27.92665 01 05 47.68 +34 53 31.8          19.0 R EQ056J95
     K04Q22N  C2004 08 28.05579 01 10 57.54 +34 40 20.9          18.7 R EQ056952
     K04Q22N  C2004 08 28.05615 01 10 58.37 +34 40 18.4          19.1 R EQ056952
     K04Q22N  C2004 08 28.05651 01 10 59.23 +34 40 16.0          18.9 R EQ056952
     K04Q22N  C2004 08 28.05687 01 11 00.10 +34 40 13.6          19.1 R EQ056952
     K04Q22N  C2004 08 28.11905 01 13 25.39 +34 32 01.2          18.3 R EQ056J95
     K04Q22N  C2004 08 28.12609 01 13 41.34 +34 31 59.2          19.5 V EQ056941
     K04Q22N  C2004 08 28.12664 01 13 42.60 +34 31 55.3          19.5 V EQ056941
     K04Q22N  C2004 08 28.12748 01 13 44.56 +34 31 49.4          19.6 V EQ056941
     K04Q22N  C2004 08 28.12898 01 13 48.05 +34 31 38.4          19.4 V EQ056941
     K04Q22N  C2004 08 28.12960 01 13 49.47 +34 31 33.9          19.4 V EQ056941
     K04Q22N  C2004 08 28.13000 01 13 50.97 +34 30 41.4                 EQ056J95

Observer details:
704 Lincoln Laboratory ETS, New Mexico.  Observers M. Blythe, F. Shelly,
    M. Bezpalko, R. Huber, L. Manguso, D. Torres, R. Kracke, M. McCleary,
    H. Stange, A. Milner.  Measurers J. Stuart, R. Sayer, J. Evans, J. Kommers.
    1.0-m f/2.15 reflector + CCD.
941 Observatorio Pla D'Arguines.  Observer R. Ferrando.  0.36-m f/6.3
    Schmidt-Cassegrain + CCD.
952 Marxuquera.  Observer J. J. Gomez.  0.25-m f/7.3 Schmidt-Cassegrain + CCD.
J95 Great Shefford.  Observer P. Birtwhistle.  0.30-m f/6.3 Schmidt-Cassegrain
    + CCD.

Orbital elements:
2004 QN22
Epoch 2004 July 14.0 TT = JDT 2453200.5                 MPC
M 345.72103              (2000.0)            P               Q
n   0.25051837     Peri.  187.60968     +0.98686107     +0.15757037
a   2.4921624      Node   163.19691     -0.14096498     +0.94775507
e   0.5919823      Incl.    7.10024     -0.07895628     +0.27736601
P   3.93           H   24.4           G   0.15           U   7
Residuals in seconds of arc
040825 704  0.5-  0.3-    040827 J95  0.0   0.6-    040828 941  0.8-  0.2-
040825 704  0.1-  0.6+    040828 952  0.1-  0.3-    040828 941  1.0-  0.1-
040825 704  0.5+  0.2-    040828 952  0.3-  0.3-    040828 941  0.9-  0.1+
040825 704  0.0   0.1+    040828 952  0.1-  0.2-    040828 941  0.8-  0.1+
040827 J95  0.6+  0.2-    040828 952  0.3+  0.2-    040828 941  1.1-  0.2+
040827 J95  0.7-  0.5+    040828 J95  0.8+  0.2+    040828 J95  0.2+  0.3+

Ephemeris:
2004 QN22                a,e,i = 2.49, 0.59, 7                   q = 1.0168
Date    TT    R. A. (2000) Decl.     Delta      r     Elong.  Phase     V
2004 08 23    21 54.77   +33 37.9    0.041    1.041   134.8    43.6    19.3
2004 08 24    22 26.16   +35 14.0    0.039    1.038   133.6    44.9    19.1
2004 08 25    23 02.73   +36 23.0    0.037    1.036   131.6    46.8    19.1
2004 08 26    23 43.56   +36 48.1    0.036    1.033   128.9    49.6    19.1
2004 08 27    00 26.47   +36 16.8    0.035    1.031   125.4    53.0    19.1
2004 08 28    01 08.57   +34 47.4    0.035    1.029   121.4    56.9    19.3
2004 08 29    01 47.25   +32 31.4    0.036    1.027   117.2    61.0    19.4
2004 08 30    02 21.04   +29 47.5    0.038    1.025   113.2    64.8    19.7
2004 08 31    02 49.62   +26 54.2    0.040    1.024   109.5    68.3    19.9
2004 09 01    03 13.40   +24 04.9    0.043    1.022   106.3    71.3    20.1
2004 09 02    03 33.10   +21 27.2    0.047    1.021   103.6    73.8    20.4
2004 09 03    03 49.46   +19 04.6    0.050    1.020   101.4    75.8    20.6
2004 09 04    04 03.12   +16 57.4    0.054    1.019    99.6    77.4    20.8
2004 09 05    04 14.63   +15 04.8    0.058    1.018    98.2    78.6    21.0
2004 09 06    04 24.41   +13 25.4    0.063    1.018    97.1    79.4    21.2
2004 09 07    04 32.79   +11 57.7    0.067    1.017    96.2    80.1    21.4
2004 09 08    04 40.04   +10 39.9    0.071    1.017    95.6    80.4    21.5
2004 09 09    04 46.35   +09 30.8    0.076    1.017    95.1    80.6    21.7
2004 09 10    04 51.88   +08 29.1    0.081    1.017    94.8    80.7    21.8
2004 09 11    04 56.77   +07 33.7    0.085    1.017    94.6    80.6    21.9
2004 09 12    05 01.10   +06 43.9    0.090    1.017    94.5    80.4    22.0

Kyle E. Smalley              (C) Copyright 2004 MPC           M.P.E.C. 2004-Q56

Read MPEC 2004-Q55 Read MPEC 2004-Q57


Our Web policy. Index to the CBAT/MPC/ICQ pages.


Valid HTML 4.01!